Starlink 35685

operational
NORAD ID: 67128 Int'l Des: 2025-299 Owner: SPXS Country: US Constellation: starlink
LEOCIRCULAR

About Starlink 35685

Description loading...

Live Position

Loading 3D Globe...

Upcoming Passes

Altitude History

Altitude vs Time

uPlot chart will show altitude changes over time

Two-Line Element Set

1 67128C 25299AC 25349.45812500 .01560900 00000+0 22450-2 0 3493
2 67128 43.0013 301.3185 0007880 255.5552 123.4120 16.02814101 18
Epoch: Dec 15, 2025 • Age: 44 hours

Current Status

Altitude 261.3 km
Velocity 7.75 km/s
Sub-Earth Point 43.00°N, 0.51°E
Launch Date Dec 15, 2025
Age 1 days
Type internet

Technical Details

Classification Payload
Mass 575.00 kg
Dry Mass 530.00 kg
Total Mass 575.00 kg
Length 0.30 m
Diameter 4.10 m
Span 29.00 m
Shape Box + pan
Manufacturer SPXS
Bus Type Starlink V2MO
Phase Status In Orbit
Owner/State SPXS/US

Large Constellations

Loading constellations...